Lexington Weather

Lexington, Massachusetts, USA

34°F
4/16/2021 10:41am 
  • Lexington Conditions: Snow, Fog, Overcast
  • Temperature: 34.0°F / 1.1°C 
  • Dew Point: 32.7°F 
  • Relative Humidity: 95
  • Wind: Calm, 10-min avg: Calm, gust: None
  • Barometer: 29.48 in Steady
  • Visibility: ½ mile
  • Snow Today: 1.3 in
  •   

Regional Weather Roundup
for Boston / Norton, MA

        
000
ASUS41 KBOX 101604
RWRBOX

REGIONAL WEATHER ROUNDUP
NATIONAL WEATHER SERVICE BOSTON/NORTON MA
1200 PM EDT SAT APR 10 2021

NOTE:  "FAIR" INDICATES FEW OR NO CLOUDS BELOW 12,000 FEET WITH NO 
SIGNIFICANT WEATHER AND/OR OBSTRUCTIONS TO VISIBILITY.

MAZALL-101700-
EASTERN MASSACHUSETTS
  
CITY           SKY/WX    TMP DP  RH WIND       PRES   REMARKS
BOSTON         MOSUNNY   68  49  50 SE10      29.93F                  
BEVERLY        MOSUNNY   67  48  50 VRB5      29.92F                  
LAWRENCE       MOSUNNY   67  48  50 VRB5      29.94F                  
BEDFORD        MOSUNNY   72  51  47 MISG      29.92F                  
BLUE HILL        N/A     68  50  52 VRB7      29.94F                  
NORWOOD        MOSUNNY   71  50  47 VRB5      29.93F                  
MARSHFIELD     MOSUNNY   68  50  52 SW7G14    29.94F                  
PLYMOUTH       SUNNY     65  49  56 SW7       29.96F                  
TAUNTON        SUNNY     67  50  54 VRB3      29.96F                  
NEW BEDFORD    SUNNY     64  49  57 SE10      29.97F                  
$$

MAZALL-101700-
CAPE COD AND THE ISLANDS
  
CITY           SKY/WX    TMP DP  RH WIND       PRES   REMARKS
FALMOUTH       MOSUNNY   57  46  67 SW9G18    29.98F                  
HYANNIS        SUNNY     57  47  69 S12       29.97F                  
CHATHAM        PTSUNNY   52  46  80 SW8       30.00F                  
PROVINCETOWN   PTSUNNY   58  48  69 SW15G21   29.97F                  
NANTUCKET      CLOUDY    49  45  86 SW15      30.02F                  
MARTHAS VNYRD  MOSUNNY   57  48  72 SW13      30.01F                  
$$
 
MAZALL-101700-
CENTRAL AND WESTERN MASSACHUSETTS
  
CITY           SKY/WX    TMP DP  RH WIND       PRES   REMARKS
WORCESTER      MOSUNNY   67  50  54 W9        29.95F                  
FITCHBURG      SUNNY     70  51  51 SW7       29.93F                  
ORANGE         SUNNY     67  51  56 S7        29.94F                  
SPRINGFIELD    MOSUNNY   68  50  53 SW7       29.93F                  
WESTFIELD      SUNNY     68  51  54 S8        29.92F                  
NORTH ADAMS    SUNNY     68  50  52 W6        29.92F                  
PITTSFIELD     SUNNY     66  50  56 W6        29.92F                  
$$
 
RIZALL-101700-
RHODE ISLAND
  
CITY           SKY/WX    TMP DP  RH WIND       PRES   REMARKS
PROVIDENCE     MOSUNNY   65  51  60 SW9       29.97F                  
NEWPORT        MOSUNNY   59  51  75 VRB7      29.98F                  
BLOCK ISLAND   CLOUDY    53  46  77 SW13      30.02F                  
SMITHFIELD     SUNNY     67  54  63 VRB7      29.96F                  
WESTERLY       CLOUDY    54  47  77 SW8       30.00F                  
$$
 
CTZALL-101700-
CONNECTICUT
  
CITY           SKY/WX    TMP DP  RH WIND       PRES   REMARKS
BRADLEY INTL   MOSUNNY   69  50  50 SE8       29.94F                  
HARTFORD       MOSUNNY   66  52  60 S9        29.96F                  
BRIDGEPORT     PTSUNNY   56  48  74 SW7       29.99F                  
DANBURY        MOSUNNY   65  51  60 NW7       29.98F                  
GROTON         CLOUDY    53  48  83 SW8       29.99F                  
NEW HAVEN      CLOUDY    56  49  77 S5        29.99F                  
CHESTER        FAIR      63  52  67 VRB5      29.98F                  
MERIDEN        MOSUNNY   66  50  56 VRB5      29.96F                  
WILLIMANTIC    MOSUNNY   66  51  58 VRB3      29.96F                  
OXFORD         MOSUNNY   62  54  74 W9        29.98F                  
$$

MEZ002-015-021-024-NHZ003-005-008-011-012-014-VTZ005-008-101700-
NORTHERN NEW ENGLAND
  
CITY           SKY/WX    TMP DP  RH WIND       PRES   REMARKS
PORTLAND ME    MOSUNNY   68  49  50 E9        29.92F                  
BANGOR ME      SUNNY     64  45  49 N7        29.92F                  
CONCORD NH     PTSUNNY   68  46  45 VRB3      29.92F                  
MANCHESTER NH  MOSUNNY   70  46  42 CALM      29.91F                  
NASHUA NH      MOSUNNY   71  50  47 SE7       29.92F                  
PORTSMOUTH NH  PTSUNNY   68  42  40 SW3       29.93F                  
JAFFREY NH     SUNNY     68  50  52 VRB6      29.94F                  
KEENE NH       SUNNY     67  50  54 VRB5      29.92F                  
BURLINGTON VT  MOSUNNY   68  48  48 S10       29.91F                  
MT. WASHINGTON NOT AVBL                                               
$$

NYZ052-076-101700-
EASTERN NEW YORK
  
CITY           SKY/WX    TMP DP  RH WIND       PRES   REMARKS
ALBANY         MOSUNNY   63  50  62 SE7       29.93F                  
NEW YORK CITY  PTSUNNY   59  49  69 NE5       29.99F                  
$$
 
ANZALL-101700-
MARINE OBSERVATIONS
  
STATION/POSITION TIME  TEMP    WIND        PRES    VSBY  WAVE
                       AIR SEA DIR/SP/G                  HT/PER
                 (UTC) (F)     (DEG/KT/KT) (MB)    (MI)  (FT/S)
BOSTON BUOY      1550   49 46  160/  4/  6 1014.4F         4/11
BUZZARDS BAY     1500          220/ 15/ 16 1017.8F
NANTUCKET SOUND  1550      47                N/A           1/ 9
MASS BAY-STELLWA 1504   49     220/ 10/ 12 1013.9F  1 7/8  4/11
ISLE OF SHOALS   1500   53     190/  8/  9 1014.4F
S OF BLOCK IS    1526      47                N/A           3/11
$$

......................KEY.........................
  SKY/WX - SKY CONDITION/PRESENT WEATHER
  TMP    - TEMPERATURE IN FAHRENHEIT
  DWPT   - DEWPOINT IN FAHRENHEIT
  RH     - RELATIVE HUMIDITY IN PERCENT
  WIND   - DIRECTION AND SPEED IN MPH
  PRES   - MEAN SEA LEVEL PRESSURE IN INCHES OF HG
  WCI    - WIND CHILL INDEX
  VSB    - VISIBILITY IN MILES
  HX     - HEAT INDEX
  TC     - TEMPERATURE IN CELSIUS
  VRB    - VARIABLE WIND DIRECTION
  N/A    - NOT AVAILABLE
  
      

Other recent Regional Weather Roundups

Fri Apr 16, 10:05am

Fri Apr 16, 9:04am

Fri Apr 16, 8:04am

Fri Apr 16, 7:04am

Fri Apr 16, 6:04am

Fri Apr 16, 5:04am

Fri Apr 16, 4:04am

Fri Apr 16, 3:04am

Fri Apr 16, 2:04am

Fri Apr 16, 1:04am

Fri Apr 16, 12:04am

Thu Apr 15, 11:05pm

Thu Apr 15, 10:04pm

Thu Apr 15, 9:04pm

Thu Apr 15, 8:04pm

Thu Apr 15, 7:05pm

Thu Apr 15, 6:04pm

Thu Apr 15, 5:05pm

Thu Apr 15, 4:04pm

Thu Apr 15, 3:05pm

Thu Apr 15, 2:04pm

Thu Apr 15, 1:05pm

Thu Apr 15, 12:04pm

Thu Apr 15, 11:04am

Thu Apr 15, 10:05am

Thu Apr 15, 9:04am

Thu Apr 15, 8:04am

Thu Apr 15, 7:04am

Thu Apr 15, 6:04am

Thu Apr 15, 5:04am

Thu Apr 15, 4:04am

Thu Apr 15, 3:04am

Thu Apr 15, 2:04am

Thu Apr 15, 1:04am

Thu Apr 15, 12:04am

Wed Apr 14, 11:04pm

Wed Apr 14, 10:04pm

Wed Apr 14, 9:04pm

Wed Apr 14, 8:04pm

Wed Apr 14, 7:04pm

Wed Apr 14, 6:04pm

Wed Apr 14, 5:05pm

Wed Apr 14, 4:04pm

Wed Apr 14, 3:05pm

Wed Apr 14, 2:04pm

Wed Apr 14, 1:05pm

Wed Apr 14, 12:04pm

Wed Apr 14, 11:04am

Wed Apr 14, 10:04am

Wed Apr 14, 9:04am

Wed Apr 14, 8:04am

Wed Apr 14, 7:04am

Wed Apr 14, 6:04am

Wed Apr 14, 5:04am

Wed Apr 14, 4:04am

Wed Apr 14, 3:04am

Wed Apr 14, 2:04am

Wed Apr 14, 1:04am

Wed Apr 14, 12:04am

Tue Apr 13, 11:04pm

Tue Apr 13, 10:05pm

Tue Apr 13, 9:05pm

Tue Apr 13, 8:05pm

Tue Apr 13, 7:04pm

Tue Apr 13, 6:04pm

Tue Apr 13, 5:05pm

Tue Apr 13, 4:04pm

Tue Apr 13, 3:04pm

Tue Apr 13, 2:05pm

Tue Apr 13, 1:04pm

Tue Apr 13, 12:05pm

Tue Apr 13, 11:05am

Tue Apr 13, 10:04am

Tue Apr 13, 9:04am

Tue Apr 13, 8:04am

Tue Apr 13, 7:04am

Tue Apr 13, 6:04am

Tue Apr 13, 5:04am

Tue Apr 13, 4:04am

Tue Apr 13, 3:04am

Tue Apr 13, 2:04am

Tue Apr 13, 1:04am

Tue Apr 13, 12:05am

Mon Apr 12, 11:04pm

Mon Apr 12, 10:04pm

Mon Apr 12, 9:04pm

Mon Apr 12, 8:04pm

Mon Apr 12, 7:05pm

Mon Apr 12, 6:04pm

Mon Apr 12, 5:04pm

Mon Apr 12, 4:04pm

Mon Apr 12, 3:05pm

Mon Apr 12, 2:04pm

Mon Apr 12, 1:05pm

Mon Apr 12, 12:04pm

Mon Apr 12, 11:04am

Mon Apr 12, 10:04am

Mon Apr 12, 9:04am

Mon Apr 12, 8:04am

Mon Apr 12, 7:04am

Mon Apr 12, 6:04am

Mon Apr 12, 5:04am

Mon Apr 12, 4:04am

Mon Apr 12, 3:04am

Mon Apr 12, 2:04am

Mon Apr 12, 1:05am

Mon Apr 12, 12:04am

Sun Apr 11, 11:04pm

Sun Apr 11, 10:04pm

Sun Apr 11, 9:04pm

Sun Apr 11, 8:04pm

Sun Apr 11, 7:04pm

Sun Apr 11, 6:05pm

Sun Apr 11, 5:05pm

Sun Apr 11, 4:04pm

Sun Apr 11, 3:05pm

Sun Apr 11, 2:05pm

Sun Apr 11, 1:05pm

Sun Apr 11, 12:04pm

Sun Apr 11, 11:05am

Sun Apr 11, 10:05am

Sun Apr 11, 9:04am

Sun Apr 11, 8:04am

Sun Apr 11, 7:04am

Sun Apr 11, 6:04am

Sun Apr 11, 5:04am

Sun Apr 11, 4:04am

Sun Apr 11, 3:04am

Sun Apr 11, 2:04am

Sun Apr 11, 1:05am

Sun Apr 11, 12:04am

Sat Apr 10, 11:05pm

Sat Apr 10, 10:04pm

Sat Apr 10, 9:04pm

Sat Apr 10, 8:04pm

Sat Apr 10, 7:05pm

Sat Apr 10, 6:04pm

Sat Apr 10, 5:04pm

Sat Apr 10, 4:04pm

Sat Apr 10, 3:04pm

Sat Apr 10, 2:05pm

Sat Apr 10, 1:04pm

Sat Apr 10, 11:04am

Sat Apr 10, 10:04am

Sat Apr 10, 9:04am

Sat Apr 10, 8:04am

Sat Apr 10, 7:04am

Sat Apr 10, 6:04am

Sat Apr 10, 5:04am

Sat Apr 10, 4:04am

Sat Apr 10, 3:04am

Sat Apr 10, 2:04am

Sat Apr 10, 1:05am

Sat Apr 10, 12:04am

Fri Apr 9, 11:04pm

Fri Apr 9, 10:05pm

Fri Apr 9, 9:04pm

Fri Apr 9, 8:05pm

Fri Apr 9, 7:05pm

Fri Apr 9, 6:04pm

Fri Apr 9, 5:04pm

Fri Apr 9, 4:05pm

Fri Apr 9, 3:05pm

Fri Apr 9, 2:04pm

Fri Apr 9, 1:04pm

Fri Apr 9, 12:04pm

Fri Apr 9, 11:05am

Meta data:

ID: 9099f7e6-a559-4421-a582-bc33575abb16
Link: https://api.weather.gov/products/9099f7e6-a559-4421-a582-bc33575abb16